Location: Aufkirchen
(47.9603°N, 11.3653°E)
Time: 13:51:55
(UTC+01:00)

Transit 2A Rocket - Pass Details

Date: 09 December 2020
Orbit: 592 x 910 km, 66.7° (Epoch: 21 January)

Event Time Altitude Azimuth Distance (km) Brightness Sun altitude
Rises 09:28:33 0° 314° (NW) 3,067 7.5 10.8°
Reaches altitude 10° 09:31:29 10° 298° (WNW) 2,088 6.8 11.0°
Maximum altitude 09:34:48 19° 252° (WSW) 1,498 6.4 11.4°
Drops below altitude 10° 09:37:58 10° 206° (SSW) 1,974 7.6 11.7°
Sets 09:40:39 0° 189° (S) 2,843 8.7 11.9°
